Hourly Data Report for November 28, 2016

PITT MEADOWS CS
BRITISH COLUMBIA

49°12'29.964" N
122°41'24.076" W
5.00 m
1106178
71775
WMM

Download Data

Hourly Data (November 2016)
Hourly Data Report for November 28, 2016
TIME
LST
Temp Definition
°C
Dew Point Definition
°C
Rel Hum Definition
%
Precip. Amount Definition
mm

Wind Dir Definition
10's deg

Wind Spd Definition
km/h
Visibility Definition
km
Stn Press Definition
kPa
Hmdx Definition


Wind Chill Definition


Weather Definition


00:00 4.4 3.6 95 0.3 13 2   99.98     LegendNANA
01:00 4.5 3.8 95 0.0 4 4   100.09     LegendNANA
02:00 4.7 3.9 95 0.0 7 5   100.21     LegendNANA
03:00 4.9 4.2 95 0.0 7 3   100.33     LegendNANA
04:00 4.9 4.2 95 0.0 5 4   100.44     LegendNANA
05:00 5.1 4.2 94 0.0 7 6   100.55     LegendNANA
06:00 5.1 4.3 95 0.0 3 3   100.67     LegendNANA
07:00 5.0 4.2 94 0.0 32 1   100.80     LegendNANA
08:00 4.8 4.0 94 0.0   0   100.90     LegendNANA
09:00 5.3 4.3 94 0.0 3 3   101.02     LegendNANA
10:00 5.7 4.6 93 0.0 1 4   101.11     LegendNANA
11:00 6.5 4.7 89 0.0 3 6   101.16     LegendNANA
12:00 7.0 5.0 87 0.0 3 2   101.20     LegendNANA
13:00 7.2 4.4 82 0.0 33 1   101.27     LegendNANA
14:00 7.8 4.9 82 0.0 10 2   101.30     LegendNANA
15:00 7.4 5.1 85 0.0 2 3   101.36     LegendNANA
16:00 6.8 5.0 88 0.0 2 6   101.46     LegendNANA
17:00 6.7 4.9 88 0.0 3 5   101.52     LegendNANA
18:00 6.4 4.7 89 0.0 32 2   101.60     LegendNANA
19:00 6.4 4.9 90 0.0 29 3   101.69     LegendNANA
20:00 6.1 4.6 90 0.0 35 4   101.73     LegendNANA
21:00 5.8 4.5 91 0.0 32 3   101.82     LegendNANA
22:00 6.1 4.4 89 0.0 36 4   101.86     LegendNANA
23:00 5.9 4.3 89 0.0 2 4   101.92     LegendNANA

Notes on Data Quality.

Legend

  • E = Estimated
  • M = Missing
  • NA = Not Available*
  • [empty] = Indicates an unobserved value
Date modified: